| time (UTC) | temp C | wind direction | speed KPH | gust KPH | rain 1hr cm | rain 24hr cm | rain mn cm | humidity % | barometer mb |
| 20260507181807 | 15 | 358 | 0.0 | 0.0 | 0.00 | 0.15 | 0.15 | 67 | 1014.3 |
| 20260507181305 | 15 | 358 | 0.0 | 0.0 | 0.00 | 0.15 | 0.15 | 67 | 1014.4 |
| 20260507180817 | 15 | 358 | 0.0 | 0.0 | 0.00 | 0.15 | 0.15 | 67 | 1014.3 |
| 20260507180305 | 15 | 358 | 0.0 | 0.0 | 0.00 | 0.15 | 0.15 | 67 | 1014.2 |
| 20260507175806 | 15 | 358 | 0.0 | 0.0 | 0.00 | 0.15 | 0.15 | 66 | 1014.2 |
| 20260507175259 | 15 | 358 | 0.0 | 0.0 | 0.00 | 0.15 | 0.15 | 65 | 1014.1 |
| 20260507174757 | 16 | 358 | 0.0 | 1.6 | 0.00 | 0.15 | 0.15 | 63 | 1014.1 |
| 20260507173750 | 16 | 359 | 0.0 | 1.6 | 0.00 | 0.15 | 0.15 | 62 | 1014.0 |
| 20260507173241 | 16 | 52 | 0.0 | 1.6 | 0.00 | 0.15 | 0.15 | 62 | 1013.8 |
| 20260507172738 | 16 | 244 | 0.0 | 0.0 | 0.00 | 0.15 | 0.15 | 60 | 1013.8 |
| 20260507172234 | 16 | 244 | 0.0 | 0.0 | 0.00 | 0.15 | 0.15 | 58 | 1013.7 |
| 20260507171734 | 17 | 244 | 0.0 | 0.0 | 0.00 | 0.15 | 0.15 | 56 | 1013.7 |
| 20260507171233 | 17 | 244 | 0.0 | 0.0 | 0.00 | 0.15 | 0.15 | 55 | 1013.7 |
| 20260507170734 | 17 | 244 | 0.0 | 6.4 | 0.00 | 0.15 | 0.15 | 52 | 1013.7 |
| 20260507170234 | 17 | 244 | 0.0 | 6.4 | 0.00 | 0.15 | 0.15 | 49 | 1013.6 |
| 20260507165734 | 17 | 226 | 0.0 | 11.3 | 0.00 | 0.15 | 0.15 | 50 | 1013.5 |
| 20260507164733 | 17 | 233 | 0.0 | 11.3 | 0.00 | 0.15 | 0.15 | 49 | 1013.7 |
| 20260507164230 | 17 | 251 | 3.2 | 11.3 | 0.00 | 0.15 | 0.15 | 50 | 1013.7 |
| 20260507163727 | 18 | 235 | 1.6 | 9.7 | 0.00 | 0.15 | 0.15 | 49 | 1013.7 |
| 20260507163224 | 17 | 222 | 1.6 | 8.0 | 0.00 | 0.15 | 0.15 | 50 | 1013.8 |
| 20260507162720 | 17 | 241 | 0.0 | 12.9 | 0.00 | 0.15 | 0.15 | 50 | 1013.7 |
| 20260507162218 | 17 | 255 | 4.8 | 12.9 | 0.00 | 0.15 | 0.15 | 50 | 1013.7 |
| 20260507161715 | 17 | 233 | 0.0 | 12.9 | 0.00 | 0.15 | 0.15 | 50 | 1013.7 |
| 20260507161211 | 17 | 214 | 0.0 | 12.9 | 0.00 | 0.15 | 0.15 | 49 | 1013.7 |
| 20260507160708 | 18 | 270 | 0.0 | 11.3 | 0.00 | 0.15 | 0.15 | 48 | 1013.8 |
| 20260507155705 | 18 | 281 | 0.0 | 14.5 | 0.00 | 0.15 | 0.15 | 50 | 1013.7 |
| 20260507155204 | 18 | 238 | 0.0 | 14.5 | 0.00 | 0.15 | 0.15 | 50 | 1013.6 |
| 20260507154703 | 18 | 192 | 6.4 | 14.5 | 0.00 | 0.15 | 0.15 | 50 | 1013.6 |
| 20260507154202 | 17 | 233 | 3.2 | 12.9 | 0.00 | 0.15 | 0.15 | 50 | 1013.6 |
| 20260507153702 | 18 | 254 | 3.2 | 12.9 | 0.00 | 0.15 | 0.15 | 49 | 1013.7 |
| 20260507153202 | 18 | 254 | 0.0 | 17.7 | 0.00 | 0.15 | 0.15 | 50 | 1013.7 |
| 20260507152204 | 18 | 259 | 0.0 | 12.9 | 0.00 | 0.15 | 0.15 | 52 | 1013.7 |
| 20260507151202 | 18 | 241 | 0.0 | 11.3 | 0.00 | 0.15 | 0.15 | 53 | 1013.7 |
| 20260507150702 | 18 | 305 | 0.0 | 8.0 | 0.00 | 0.15 | 0.15 | 52 | 1013.7 |
| 20260507150202 | 18 | 191 | 1.6 | 14.5 | 0.00 | 0.15 | 0.15 | 52 | 1013.8 |
| 20260507145702 | 18 | 231 | 3.2 | 14.5 | 0.00 | 0.15 | 0.15 | 50 | 1013.7 |
| 20260507144203 | 17 | 228 | 6.4 | 12.9 | 0.00 | 0.15 | 0.15 | 52 | 1013.7 |
| 20260507143200 | 18 | 256 | 11.3 | 17.7 | 0.00 | 0.15 | 0.15 | 52 | 1013.7 |
| 20260507142656 | 17 | 243 | 4.8 | 19.3 | 0.00 | 0.15 | 0.15 | 53 | 1013.8 |
| 20260507141650 | 17 | 249 | 3.2 | 14.5 | 0.00 | 0.15 | 0.15 | 55 | 1013.7 |
| 20260507141146 | 17 | 255 | 4.8 | 14.5 | 0.00 | 0.15 | 0.15 | 55 | 1014.0 |
| 20260507140143 | 17 | 266 | 4.8 | 14.5 | 0.00 | 0.15 | 0.15 | 56 | 1014.0 |
| 20260507134632 | 16 | 251 | 6.4 | 14.5 | 0.00 | 0.15 | 0.15 | 58 | 1014.0 |
| 20260507134133 | 16 | 261 | 3.2 | 14.5 | 0.00 | 0.20 | 0.15 | 56 | 1014.1 |
| 20260507133631 | 17 | 251 | 4.8 | 16.1 | 0.00 | 0.23 | 0.15 | 55 | 1014.0 |
| 20260507133132 | 17 | 263 | 6.4 | 16.1 | 0.00 | 0.23 | 0.15 | 56 | 1014.1 |
| 20260507132631 | 17 | 199 | 6.4 | 19.3 | 0.00 | 0.25 | 0.15 | 54 | 1014.1 |
| 20260507132131 | 17 | 239 | 4.8 | 19.3 | 0.00 | 0.28 | 0.15 | 55 | 1014.1 |
| 20260507131632 | 17 | 232 | 4.8 | 19.3 | 0.00 | 0.30 | 0.15 | 54 | 1014.1 |
| 20260507131129 | 16 | 245 | 4.8 | 19.3 | 0.00 | 0.33 | 0.15 | 56 | 1014.2 |
| 20260507130620 | 16 | 243 | 8.0 | 19.3 | 0.00 | 0.33 | 0.15 | 56 | 1014.2 |
| 20260507125614 | 16 | 238 | 4.8 | 17.7 | 0.00 | 0.33 | 0.15 | 58 | 1014.3 |
| 20260507125111 | 16 | 254 | 4.8 | 19.3 | 0.00 | 0.36 | 0.15 | 59 | 1014.4 |
| 20260507124105 | 16 | 41 | 3.2 | 14.5 | 0.00 | 0.43 | 0.15 | 59 | 1014.2 |
| 20260507123603 | 16 | 255 | 4.8 | 16.1 | 0.00 | 0.46 | 0.15 | 62 | 1014.3 |
| 20260507123104 | 16 | 351 | 9.7 | 16.1 | 0.00 | 0.48 | 0.15 | 62 | 1014.3 |
| 20260507122603 | 16 | 185 | 4.8 | 14.5 | 0.00 | 0.48 | 0.15 | 62 | 1014.2 |
| 20260507122101 | 16 | 227 | 3.2 | 14.5 | 0.00 | 0.51 | 0.15 | 63 | 1014.2 |
| 20260507121557 | 15 | 218 | 6.4 | 16.1 | 0.00 | 0.51 | 0.15 | 66 | 1014.2 |
| 20260507121054 | 15 | 237 | 4.8 | 16.1 | 0.00 | 0.51 | 0.15 | 65 | 1014.2 |
| 20260507120551 | 15 | 233 | 3.2 | 14.5 | 0.00 | 0.51 | 0.15 | 68 | 1014.2 |
| 20260507115541 | 15 | 202 | 4.8 | 12.9 | 0.00 | 0.51 | 0.15 | 66 | 1014.2 |
| 20260507115032 | 15 | 147 | 3.2 | 12.9 | 0.00 | 0.51 | 0.15 | 66 | 1014.2 |
| 20260507114531 | 15 | 208 | 3.2 | 12.9 | 0.00 | 0.51 | 0.15 | 68 | 1014.3 |
| 20260507114032 | 15 | 251 | 8.0 | 11.3 | 0.00 | 0.51 | 0.15 | 69 | 1014.3 |
| 20260507113033 | 14 | 206 | 4.8 | 14.5 | 0.00 | 0.51 | 0.15 | 71 | 1014.4 |
| 20260507112031 | 14 | 185 | 9.7 | 14.5 | 0.00 | 0.51 | 0.15 | 71 | 1014.4 |
| 20260507111531 | 14 | 258 | 6.4 | 14.5 | 0.00 | 0.51 | 0.15 | 73 | 1014.5 |
| 20260507111032 | 14 | 276 | 6.4 | 12.9 | 0.00 | 0.51 | 0.15 | 72 | 1014.4 |
| 20260507105531 | 13 | 246 | 4.8 | 12.9 | 0.00 | 0.51 | 0.15 | 75 | 1014.6 |
| 20260507105031 | 13 | 268 | 6.4 | 12.9 | 0.00 | 0.51 | 0.15 | 75 | 1014.6 |
| 20260507104533 | 13 | 215 | 3.2 | 9.7 | 0.00 | 0.51 | 0.15 | 76 | 1014.6 |
| 20260507104033 | 13 | 220 | 4.8 | 9.7 | 0.00 | 0.51 | 0.15 | 77 | 1014.6 |
| 20260507103531 | 13 | 339 | 4.8 | 11.3 | 0.00 | 0.51 | 0.15 | 77 | 1014.6 |
| 20260507103032 | 13 | 223 | 4.8 | 11.3 | 0.00 | 0.51 | 0.15 | 79 | 1014.7 |
| 20260507102532 | 12 | 230 | 4.8 | 8.0 | 0.00 | 0.51 | 0.15 | 80 | 1014.7 |
| 20260507102029 | 12 | 277 | 3.2 | 9.7 | 0.00 | 0.51 | 0.15 | 81 | 1014.7 |
| 20260507100518 | 12 | 253 | 4.8 | 14.5 | 0.00 | 0.51 | 0.15 | 79 | 1014.8 |
| 20260507100017 | 12 | 238 | 8.0 | 14.5 | 0.00 | 0.51 | 0.15 | 79 | 1014.7 |
| 20260507095516 | 12 | 233 | 6.4 | 9.7 | 0.00 | 0.51 | 0.15 | 79 | 1014.6 |
| 20260507094509 | 12 | 237 | 6.4 | 14.5 | 0.00 | 0.51 | 0.15 | 80 | 1014.7 |
| 20260507093504 | 12 | 147 | 4.8 | 14.5 | 0.00 | 0.51 | 0.15 | 82 | 1014.6 |
| 20260507093004 | 12 | 265 | 6.4 | 14.5 | 0.00 | 0.51 | 0.15 | 83 | 1014.7 |
| 20260507092503 | 12 | 218 | 4.8 | 12.9 | 0.00 | 0.51 | 0.15 | 84 | 1014.7 |
| 20260507092005 | 11 | 233 | 4.8 | 16.1 | 0.00 | 0.51 | 0.15 | 85 | 1014.7 |
| 20260507091459 | 11 | 203 | 9.7 | 16.1 | 0.00 | 0.51 | 0.15 | 85 | 1014.6 |
| 20260507085448 | 11 | 224 | 3.2 | 11.3 | 0.00 | 0.51 | 0.15 | 87 | 1014.6 |
| 20260507083943 | 11 | 220 | 3.2 | 9.7 | 0.00 | 0.51 | 0.15 | 88 | 1014.7 |
| 20260507083438 | 11 | 230 | 3.2 | 9.7 | 0.00 | 0.51 | 0.15 | 88 | 1014.6 |
| 20260507082935 | 10 | 209 | 4.8 | 9.7 | 0.00 | 0.51 | 0.15 | 88 | 1014.5 |
| 20260507082433 | 10 | 265 | 3.2 | 9.7 | 0.03 | 0.51 | 0.15 | 88 | 1014.5 |
| 20260507081931 | 10 | 241 | 3.2 | 8.0 | 0.03 | 0.51 | 0.15 | 88 | 1014.4 |
| 20260507081431 | 10 | 232 | 3.2 | 6.4 | 0.03 | 0.51 | 0.15 | 88 | 1014.4 |
| 20260507080932 | 10 | 218 | 1.6 | 11.3 | 0.03 | 0.51 | 0.15 | 89 | 1014.3 |
| 20260507080432 | 10 | 228 | 4.8 | 11.3 | 0.03 | 0.51 | 0.15 | 88 | 1014.4 |
| 20260507075930 | 10 | 241 | 4.8 | 9.7 | 0.03 | 0.48 | 0.15 | 88 | 1014.4 |
| 20260507075431 | 10 | 231 | 4.8 | 12.9 | 0.03 | 0.48 | 0.15 | 89 | 1014.4 |
| 20260507074432 | 10 | 206 | 4.8 | 12.9 | 0.03 | 0.48 | 0.15 | 89 | 1014.5 |
| 20260507073431 | 10 | 223 | 4.8 | 9.7 | 0.03 | 0.48 | 0.15 | 89 | 1014.3 |
| 20260507072923 | 10 | 185 | 3.2 | 8.0 | 0.03 | 0.48 | 0.15 | 89 | 1014.4 |
| 20260507072421 | 10 | 233 | 1.6 | 6.4 | 0.00 | 0.48 | 0.13 | 90 | 1014.3 |
| 20260507071918 | 10 | 237 | 1.6 | 6.4 | 0.00 | 0.48 | 0.13 | 90 | 1014.3 |
| 20260507071409 | 10 | 194 | 3.2 | 4.8 | 0.00 | 0.48 | 0.13 | 90 | 1014.3 |
| 20260507070907 | 10 | 226 | 1.6 | 6.4 | 0.00 | 0.48 | 0.13 | 90 | 1014.3 |
| 20260507070405 | 10 | 231 | 3.2 | 6.4 | 0.00 | 0.48 | 0.13 | 90 | 1014.2 |
| 20260507065906 | 10 | 241 | 3.2 | 4.8 | 0.00 | 0.48 | 0.13 | 90 | 1014.2 |
| 20260507065404 | 10 | 233 | 1.6 | 6.4 | 0.00 | 0.48 | 0.13 | 90 | 1014.1 |
| 20260507064904 | 10 | 232 | 3.2 | 6.4 | 0.00 | 0.48 | 0.13 | 90 | 1014.0 |
| 20260507063904 | 9 | 193 | 4.8 | 8.0 | 0.00 | 0.48 | 0.13 | 90 | 1014.0 |
| 20260507063403 | 9 | 235 | 3.2 | 8.0 | 0.00 | 0.48 | 0.13 | 90 | 1014.0 |
| 20260507062903 | 9 | 243 | 1.6 | 8.0 | 0.00 | 0.48 | 0.13 | 90 | 1013.8 |
| 20260507062404 | 9 | 247 | 4.8 | 8.0 | 0.00 | 0.48 | 0.13 | 90 | 1014.0 |
| 20260507061904 | 9 | 248 | 1.6 | 6.4 | 0.00 | 0.48 | 0.13 | 90 | 1014.0 |
| 20260507061359 | 9 | 199 | 1.6 | 4.8 | 0.00 | 0.48 | 0.13 | 91 | 1013.8 |
| 20260507060856 | 9 | 240 | 1.6 | 8.0 | 0.00 | 0.48 | 0.13 | 91 | 1013.8 |
| 20260507060353 | 9 | 239 | 3.2 | 8.0 | 0.00 | 0.48 | 0.13 | 90 | 1013.7 |
| 20260507055344 | 9 | 229 | 1.6 | 4.8 | 0.03 | 0.48 | 0.13 | 90 | 1013.7 |
| 20260507054339 | 9 | 233 | 3.2 | 4.8 | 0.03 | 0.48 | 0.13 | 90 | 1013.6 |
| 20260507053834 | 9 | 226 | 1.6 | 4.8 | 0.03 | 0.48 | 0.13 | 90 | 1013.7 |
| 20260507053331 | 9 | 199 | 0.0 | 4.8 | 0.03 | 0.48 | 0.13 | 90 | 1013.7 |
| 20260507052331 | 8 | 199 | 0.0 | 3.2 | 0.03 | 0.48 | 0.13 | 90 | 1013.5 |
| 20260507051833 | 8 | 197 | 0.0 | 3.2 | 0.05 | 0.48 | 0.13 | 90 | 1013.5 |
| 20260507051331 | 8 | 197 | 1.6 | 4.8 | 0.05 | 0.48 | 0.13 | 90 | 1013.4 |
| 20260507050834 | 8 | 197 | 1.6 | 4.8 | 0.05 | 0.48 | 0.13 | 90 | 1013.4 |
| 20260507050331 | 8 | 229 | 0.0 | 4.8 | 0.05 | 0.48 | 0.13 | 90 | 1013.2 |
| 20260507045833 | 8 | 229 | 1.6 | 4.8 | 0.05 | 0.43 | 0.13 | 90 | 1013.2 |
| 20260507045332 | 8 | 229 | 0.0 | 4.8 | 0.05 | 0.43 | 0.10 | 90 | 1013.1 |
| 20260507044830 | 8 | 229 | 1.6 | 4.8 | 0.05 | 0.43 | 0.10 | 90 | 1013.2 |
| 20260507044327 | 8 | 229 | 3.2 | 4.8 | 0.05 | 0.43 | 0.10 | 90 | 1013.1 |
| 20260507043824 | 8 | 224 | 1.6 | 4.8 | 0.05 | 0.43 | 0.10 | 90 | 1013.0 |
| 20260507043320 | 8 | 241 | 1.6 | 6.4 | 0.08 | 0.43 | 0.10 | 90 | 1013.1 |
| 20260507042817 | 8 | 238 | 3.2 | 6.4 | 0.08 | 0.43 | 0.10 | 90 | 1012.9 |
| 20260507042314 | 8 | 219 | 1.6 | 4.8 | 0.08 | 0.43 | 0.10 | 90 | 1012.9 |
| 20260507041811 | 8 | 221 | 0.0 | 4.8 | 0.05 | 0.43 | 0.08 | 90 | 1012.9 |
| 20260507041307 | 8 | 223 | 1.6 | 6.4 | 0.05 | 0.43 | 0.08 | 90 | 1012.9 |
| 20260507040804 | 8 | 225 | 1.6 | 6.4 | 0.05 | 0.43 | 0.05 | 90 | 1012.9 |
| 20260507040302 | 8 | 219 | 3.2 | 6.4 | 0.05 | 0.43 | 0.05 | 90 | 1012.9 |
| 20260507035803 | 8 | 212 | 3.2 | 9.7 | 0.05 | 0.38 | 0.05 | 90 | 1012.8 |
| 20260507035255 | 8 | 233 | 6.4 | 9.7 | 0.05 | 0.38 | 0.05 | 90 | 1012.7 |
| 20260507033733 | 8 | 237 | 3.2 | 11.3 | 0.03 | 0.38 | 0.05 | 90 | 1012.8 |
| 20260507033232 | 8 | 266 | 4.8 | 11.3 | 0.00 | 0.38 | 0.03 | 90 | 1012.7 |
| 20260507032733 | 8 | 222 | 4.8 | 11.3 | 0.00 | 0.38 | 0.03 | 91 | 1012.6 |
| 20260507032231 | 8 | 185 | 3.2 | 12.9 | 0.00 | 0.38 | 0.03 | 91 | 1012.7 |
| 20260507030734 | 8 | 233 | 6.4 | 19.3 | 0.00 | 0.38 | 0.03 | 91 | 1012.6 |
| 20260507025732 | 8 | 208 | 8.0 | 12.9 | 0.00 | 0.38 | 0.03 | 91 | 1012.6 |
| 20260507025232 | 8 | 238 | 3.2 | 6.4 | 0.00 | 0.38 | 0.03 | 91 | 1012.6 |
| 20260507024731 | 8 | 207 | 3.2 | 11.3 | 0.00 | 0.38 | 0.03 | 92 | 1012.5 |
| 20260507024231 | 8 | 222 | 4.8 | 11.3 | 0.00 | 0.38 | 0.03 | 92 | 1012.5 |
| 20260507023732 | 8 | 216 | 3.2 | 8.0 | 0.00 | 0.38 | 0.03 | 91 | 1012.5 |
| 20260507023230 | 8 | 215 | 4.8 | 8.0 | 0.00 | 0.38 | 0.03 | 91 | 1012.5 |
| 20260507022731 | 8 | 185 | 0.0 | 0.0 | 0.00 | 0.38 | 0.03 | 91 | 1012.4 |
| 20260507022233 | 8 | 185 | 0.0 | 0.0 | 0.03 | 0.38 | 0.03 | 92 | 1012.4 |
| 20260507021730 | 8 | 185 | 0.0 | 3.2 | 0.03 | 0.38 | 0.03 | 91 | 1012.3 |
| 20260507021221 | 8 | 185 | 0.0 | 3.2 | 0.03 | 0.38 | 0.03 | 91 | 1012.3 |
| 20260507020718 | 8 | 185 | 0.0 | 3.2 | 0.03 | 0.38 | 0.03 | 91 | 1012.4 |
| 20260507020215 | 8 | 157 | 0.0 | 3.2 | 0.03 | 0.38 | 0.03 | 91 | 1012.2 |
| 20260507015711 | 8 | 156 | 0.0 | 3.2 | 0.03 | 0.36 | 0.03 | 91 | 1012.1 |
| 20260507015208 | 8 | 156 | 0.0 | 0.0 | 0.03 | 0.36 | 0.03 | 91 | 1012.2 |
| 20260507013703 | 7 | 156 | 0.0 | 0.0 | 0.03 | 0.36 | 0.03 | 91 | 1012.1 |
| 20260507013149 | 7 | 156 | 0.0 | 0.0 | 0.03 | 0.36 | 0.03 | 91 | 1012.0 |
| 20260507012647 | 7 | 156 | 0.0 | 1.6 | 0.03 | 0.36 | 0.03 | 91 | 1012.0 |
| 20260507012144 | 7 | 156 | 0.0 | 3.2 | 0.00 | 0.36 | 0.00 | 91 | 1011.9 |
| 20260507011640 | 7 | 156 | 0.0 | 3.2 | 0.00 | 0.36 | 0.00 | 91 | 1012.0 |
| 20260507010634 | 7 | 156 | 0.0 | 3.2 | 0.00 | 0.36 | 0.00 | 91 | 1012.0 |
| 20260507010134 | 7 | 156 | 0.0 | 3.2 | 0.00 | 0.36 | 0.00 | 91 | 1012.0 |
| 20260507004631 | 7 | 156 | 0.0 | 0.0 | 0.00 | 0.36 | 0.00 | 91 | 1011.9 |
| 20260507004130 | 7 | 156 | 0.0 | 0.0 | 0.00 | 0.36 | 0.00 | 91 | 1011.8 |
| 20260507003631 | 7 | 156 | 0.0 | 0.0 | 0.00 | 0.36 | 0.00 | 91 | 1011.9 |
| 20260507003132 | 7 | 156 | 0.0 | 0.0 | 0.00 | 0.36 | 0.00 | 91 | 1011.9 |
| 20260507002630 | 7 | 156 | 0.0 | 0.0 | 0.00 | 0.36 | 0.00 | 91 | 1011.9 |
| 20260507002132 | 7 | 156 | 0.0 | 0.0 | 0.00 | 0.36 | 0.00 | 91 | 1011.8 |
| 20260507001633 | 7 | 156 | 0.0 | 0.0 | 0.00 | 0.36 | 0.00 | 91 | 1011.8 |
| 20260507001133 | 7 | 156 | 0.0 | 0.0 | 0.00 | 0.36 | 0.00 | 91 | 1011.8 |
| 20260507000623 | 7 | 156 | 0.0 | 0.0 | 0.00 | 0.36 | 0.00 | 91 | 1011.8 |
| 20260507000111 | 7 | 156 | 0.0 | 0.0 | 0.00 | 0.36 | 0.00 | 91 | 1011.8 |
| 20260506235105 | 7 | 156 | 0.0 | 0.0 | 0.00 | 0.36 | 0.00 | 91 | 1011.7 |
| 20260506234604 | 7 | 156 | 0.0 | 0.0 | 0.00 | 0.36 | 0.00 | 91 | 1011.7 |
| 20260506234103 | 7 | 156 | 0.0 | 0.0 | 0.00 | 0.36 | 0.00 | 91 | 1011.6 |
| 20260506233604 | 7 | 156 | 0.0 | 0.0 | 0.00 | 0.36 | 0.00 | 91 | 1011.7 |
| 20260506233103 | 7 | 156 | 0.0 | 0.0 | 0.00 | 0.36 | 0.00 | 91 | 1011.7 |
| 20260506232602 | 7 | 156 | 0.0 | 0.0 | 0.00 | 0.36 | 0.00 | 91 | 1011.8 |
| 20260506232101 | 7 | 156 | 0.0 | 1.6 | 0.00 | 0.36 | 0.00 | 90 | 1011.8 |
| 20260506231049 | 7 | 156 | 1.6 | 3.2 | 0.00 | 0.36 | 0.00 | 90 | 1011.6 |
| 20260506230534 | 7 | 193 | 0.0 | 3.2 | 0.00 | 0.36 | 0.00 | 90 | 1011.6 |
| 20260506225531 | 7 | 194 | 0.0 | 0.0 | 0.00 | 0.36 | 0.00 | 90 | 1011.3 |
| 20260506225031 | 7 | 194 | 0.0 | 0.0 | 0.00 | 0.36 | 0.00 | 90 | 1011.4 |
| 20260506224523 | 7 | 194 | 0.0 | 0.0 | 0.00 | 0.36 | 0.00 | 90 | 1011.6 |
| 20260506224022 | 7 | 194 | 0.0 | 3.2 | 0.00 | 0.36 | 0.00 | 90 | 1011.4 |
| 20260506223517 | 7 | 194 | 0.0 | 3.2 | 0.00 | 0.36 | 0.00 | 90 | 1011.4 |
| 20260506223014 | 7 | 194 | 1.6 | 3.2 | 0.00 | 0.36 | 0.00 | 90 | 1011.4 |
| 20260506222511 | 7 | 194 | 1.6 | 3.2 | 0.00 | 0.36 | 0.00 | 90 | 1011.6 |
| 20260506222010 | 7 | 194 | 0.0 | 1.6 | 0.00 | 0.36 | 0.00 | 90 | 1011.4 |
| 20260506221509 | 7 | 194 | 0.0 | 1.6 | 0.00 | 0.36 | 0.00 | 90 | 1011.4 |
| 20260506221008 | 7 | 194 | 0.0 | 1.6 | 0.00 | 0.36 | 0.00 | 90 | 1011.4 |
| 20260506220015 | 7 | 194 | 0.0 | 4.8 | 0.00 | 0.36 | 0.00 | 90 | 1011.4 |
| 20260506215502 | 7 | 194 | 1.6 | 4.8 | 0.00 | 0.36 | 0.36 | 90 | 1011.3 |
| 20260506215002 | 7 | 113 | 1.6 | 3.2 | 0.00 | 0.36 | 0.36 | 90 | 1011.3 |
| 20260506214458 | 7 | 112 | 0.0 | 3.2 | 0.00 | 0.36 | 0.36 | 90 | 1011.3 |
| 20260506213959 | 8 | 112 | 0.0 | 0.0 | 0.00 | 0.36 | 0.36 | 90 | 1011.2 |
| 20260506213458 | 8 | 112 | 0.0 | 0.0 | 0.00 | 0.36 | 0.36 | 90 | 1011.2 |
| 20260506212446 | 7 | 112 | 0.0 | 0.0 | 0.00 | 0.36 | 0.36 | 89 | 1011.3 |
| 20260506211938 | 8 | 112 | 0.0 | 0.0 | 0.00 | 0.36 | 0.36 | 89 | 1011.3 |
| 20260506211435 | 8 | 112 | 0.0 | 0.0 | 0.00 | 0.36 | 0.36 | 89 | 1011.4 |
| 20260506210933 | 8 | 112 | 0.0 | 4.8 | 0.00 | 0.36 | 0.36 | 89 | 1011.2 |
| 20260506210433 | 8 | 112 | 1.6 | 4.8 | 0.00 | 0.36 | 0.36 | 89 | 1011.1 |
| 20260506205932 | 8 | 110 | 3.2 | 4.8 | 0.00 | 0.36 | 0.36 | 89 | 1011.1 |
| 20260506205431 | 8 | 237 | 0.0 | 4.8 | 0.00 | 0.36 | 0.36 | 89 | 1011.0 |
| 20260506204931 | 8 | 237 | 1.6 | 4.8 | 0.00 | 0.36 | 0.36 | 89 | 1011.0 |
| 20260506203931 | 8 | 180 | 0.0 | 0.0 | 0.00 | 0.36 | 0.36 | 89 | 1011.2 |
| 20260506203430 | 8 | 180 | 0.0 | 1.6 | 0.00 | 0.36 | 0.36 | 88 | 1011.2 |
| 20260506202928 | 8 | 180 | 0.0 | 3.2 | 0.00 | 0.36 | 0.36 | 89 | 1011.2 |
| 20260506202423 | 8 | 180 | 0.0 | 3.2 | 0.00 | 0.36 | 0.36 | 88 | 1011.3 |
| 20260506201417 | 8 | 180 | 0.0 | 1.6 | 0.00 | 0.36 | 0.36 | 88 | 1011.2 |
| 20260506200915 | 8 | 180 | 0.0 | 0.0 | 0.00 | 0.36 | 0.36 | 88 | 1011.2 |
| 20260506200409 | 8 | 180 | 0.0 | 0.0 | 0.00 | 0.36 | 0.36 | 88 | 1011.2 |
| 20260506195906 | 8 | 180 | 0.0 | 0.0 | 0.00 | 0.36 | 0.36 | 88 | 1011.1 |
| 20260506192858 | 9 | 180 | 0.0 | 0.0 | 0.00 | 0.36 | 0.36 | 87 | 1010.8 |
| 20260506192354 | 9 | 180 | 0.0 | 3.2 | 0.00 | 0.36 | 0.36 | 86 | 1010.7 |
| 20260506191347 | 10 | 224 | 0.0 | 4.8 | 0.00 | 0.36 | 0.36 | 86 | 1010.4 |
| 20260506190845 | 10 | 224 | 1.6 | 11.3 | 0.00 | 0.36 | 0.36 | 86 | 1010.3 |
| 20260506190344 | 10 | 216 | 3.2 | 11.3 | 0.00 | 0.36 | 0.36 | 86 | 1010.3 |
| 20260506185333 | 10 | 223 | 3.2 | 4.8 | 0.00 | 0.36 | 0.36 | 86 | 1010.3 |
| 20260506184834 | 10 | 220 | 1.6 | 4.8 | 0.00 | 0.36 | 0.36 | 85 | 1010.2 |
| 20260506184333 | 10 | 226 | 1.6 | 4.8 | 0.00 | 0.36 | 0.36 | 85 | 1010.3 |
| 20260506183832 | 10 | 224 | 1.6 | 4.8 | 0.00 | 0.36 | 0.36 | 84 | 1010.1 |
| 20260506183331 | 10 | 141 | 0.0 | 0.0 | 0.00 | 0.36 | 0.36 | 84 | 1010.1 |
| 20260506182827 | 10 | 141 | 0.0 | 6.4 | 0.00 | 0.36 | 0.36 | 83 | 1010.1 |